Staverton, United Kingdom

2:47 AM BST on March 26, 2017 (GMT +0100)
Gloucestershire

Weather History for EGBJ - September, 2012

Change the Weather History Date:

Tuesday, September 25, 2012

  Actual Average Record
Temperature  
Mean Temperature 54 °F -  
Max Temperature 57 °F 58 °F 69 °F (1998)
Min Temperature 50 °F 50 °F 39 °F (2010)
Degree Days  
Heating Degree Days 12    
Growing Degree Days 4 (Base 50)    
Moisture  
Dew Point 48 °F    
Average Humidity 79    
Maximum Humidity 87    
Minimum Humidity 67    
Precipitation  
Precipitation 0.00 in - - ()
Sea Level Pressure  
Sea Level Pressure 29.09 in    
Wind  
Wind Speed 12 mph ()    
Max Wind Speed 22 mph    
Max Gust Speed 38 mph    
Visibility 6.2 miles    
Events Rain    
Averages and records for this station are not official NWS values.
T = Trace of Precipitation, MM = Missing Value Source: Averaged Metar Reports

Daily Weather History Graph

Daily Weather History Graph

Search for Another Location

Airport or City:

Trip Planner

Search our weather history database for the weather conditions in past years. The results will help you decide how hot, cold, wet, or windy it might be!

Date:

Astronomy

Sep. 25, 2012 Rise Set
Actual Time 7:00 AM BST 6:59 PM BST
Civil Twilight 6:26 AM BST 7:32 PM BST
Nautical Twilight 5:46 AM BST 8:12 PM BST
Astronomical Twilight 5:05 AM BST 8:53 PM BST
Moon 4:41 PM BST (9/25) 1:34 AM BST (9/25)
Length of Visible Light 13h 06m
Length of Day
11h 59m
Waxing Gibbous, 78% of the Moon is Illuminated
Sep 25
Waxing Gibbous
Sep 30
Full
Oct 8
Last Quarter
Oct 15
New
Oct 22
First Quarter

Hourly Weather History & Observations

Time (BST) Temp. Dew Point Humidity Pressure Visibility Wind Dir Wind Speed Gust Speed Precip Events Conditions
6:50 AM 50.0 °F 46.4 °F 87% 29.09 in 6.2 mi SSW 12.7 mph - N/A   Scattered Clouds
7:20 AM 50.0 °F 44.6 °F 82% 29.09 in 6.2 mi SSW 12.7 mph - N/A Rain Light Rain Showers
7:50 AM 50.0 °F 46.4 °F 87% 29.09 in 6.2 mi SSW 15.0 mph - N/A Rain Light Rain Showers
8:20 AM 50.0 °F 46.4 °F 87% 29.09 in 6.2 mi SSW 12.7 mph - N/A Rain Light Rain Showers
8:50 AM 50.0 °F 46.4 °F 87% 29.09 in 6.2 mi SSW 12.7 mph - N/A   Partly Cloudy
9:20 AM 51.8 °F 46.4 °F 82% 29.09 in 6.2 mi SSW 11.5 mph - N/A   Partly Cloudy
9:50 AM 53.6 °F 48.2 °F 82% 29.09 in 6.2 mi SSW 15.0 mph - N/A   Scattered Clouds
10:20 AM 53.6 °F 48.2 °F 82% 29.09 in 6.2 mi SW 12.7 mph 28.8 mph N/A Rain Light Rain Showers
10:50 AM 55.4 °F 48.2 °F 77% 29.09 in 6.2 mi SSW 17.3 mph - N/A   Scattered Clouds
11:20 AM 55.4 °F 48.2 °F 77% 29.09 in 6.2 mi SSW 13.8 mph - N/A   Scattered Clouds
11:50 AM 53.6 °F 48.2 °F 82% 29.09 in 6.2 mi SW 12.7 mph 24.2 mph N/A   Scattered Clouds
12:20 PM 57.2 °F 46.4 °F 67% 29.09 in 6.2 mi SW 21.9 mph 38.0 mph N/A   Scattered Clouds
12:50 PM 53.6 °F 48.2 °F 82% 29.09 in 6.2 mi SW 18.4 mph - N/A   Scattered Clouds
1:20 PM 55.4 °F 48.2 °F 77% 29.09 in 6.2 mi SSW 16.1 mph - N/A   Scattered Clouds
1:50 PM 55.4 °F 48.2 °F 77% 29.09 in 6.2 mi SSW 17.3 mph - N/A   Scattered Clouds
2:20 PM 55.4 °F 50.0 °F 82% 29.09 in 6.2 mi SSW 17.3 mph - N/A   Scattered Clouds
2:50 PM 57.2 °F 48.2 °F 72% 29.09 in 6.2 mi SW 17.3 mph 28.8 mph N/A   Scattered Clouds
3:20 PM 57.2 °F 46.4 °F 67% 29.09 in 6.2 mi SW 16.1 mph 29.9 mph N/A   Scattered Clouds
3:50 PM 57.2 °F 48.2 °F 72% 29.09 in 6.2 mi SW 15.0 mph - N/A   Scattered Clouds
4:20 PM 57.2 °F 48.2 °F 72% 29.09 in 6.2 mi SW 13.8 mph - N/A   Scattered Clouds
4:50 PM 55.4 °F 46.4 °F 72% 29.09 in 6.2 mi SSW 13.8 mph - N/A   Partly Cloudy
5:20 PM 55.4 °F 48.2 °F 77% 29.09 in 6.2 mi SSW 10.4 mph - N/A   Scattered Clouds
5:50 PM 55.4 °F 48.2 °F 77% 29.09 in 6.2 mi SSW 10.4 mph - N/A   Scattered Clouds
6:20 PM 53.6 °F 48.2 °F 82% 29.12 in 6.2 mi South 10.4 mph - N/A   Scattered Clouds
6:50 PM 53.6 °F 48.2 °F 82% 29.12 in 6.2 mi SSW 9.2 mph - N/A   Scattered Clouds